Miscellaneous Local Product
Issued by NWS Hastings, NE

Home | Current Version | Previous Version | Text Only | Print | Product List | Glossary On
Versions: 1 2 3 4 5 6 7 8 9 10 11 12 13 14 15 16 17 18 19 20 21 22 23 24 25 26 27 28 29 30 31 32 33 34 35 36 37 38 39 40 41 42 43 44 45 46 47 48 49 50
000
AXUS43 KGID 180702
MISGRI

GID CWA HOURLY WEATHER ROUNDUP
NATIONAL WEATHER SERVICE HASTINGS NE
100 AM CST SAT NOV 18 2017

NOTE: "FAIR" INDICATES FEW OR NO CLOUDS BELOW 12,000 FEET WITH NO
SIGNIFICANT WEATHER AND/OR OBSTRUCTIONS TO VISIBILITY.

...SOUTH CENTRAL NEBRASKA...

CITY           SKY/WX    TMP DP  RH WIND       PRES   REMARKS
GRAND ISLAND   LGT RAIN  40  39  97 N17       29.69R WCI  31
KEARNEY        LGT RAIN  40  38  93 N20       29.70R WCI  30
HASTINGS       LGT RAIN  40  38  93 N22G29    29.66S WCI  30
ORD            CLOUDY    40  37  89 N15       29.73R WCI  32
YORK           LGT RAIN  41  41 100 N15G23    29.63R
AURORA         LGT SNOW  40  38  95 N22       29.67R WCI  30
LEXINGTON      LGT RAIN  41  37  87 N12       29.76R
HOLDREGE       LGT RAIN  40  39  97 N13G18    29.73R WCI  33
HEBRON         PTCLDY    44  39  81 N15G21    29.60R

...NEBRASKA PANHANDLE...

CITY           SKY/WX    TMP DP  RH WIND       PRES   REMARKS
CHADRON        CLOUDY    37  34  89 NW12      29.92R WCI  29
ALLIANCE       CLOUDY    35  34  96 N14       29.88R WCI  26
SCOTTSBLUFF    CLOUDY    38  28  67 NW20      29.91R WCI  28
SIDNEY         CLOUDY    36  30  79 N21G28    29.89R WCI  25

...WESTERN AND NORTH CENTRAL NEBRASKA...

CITY           SKY/WX    TMP DP  RH WIND       PRES   REMARKS
VALENTINE      MIX PCPN  37  35  92 NW8       29.84R WCI  31
AINSWORTH      DRIZZLE   35  35 100 N10       29.82R WCI  27
ONEILL         CLOUDY    38  36  89 N15       29.76S WCI  30
BROKEN BOW     LGT RAIN  39  35  86 N20G26    29.76R WCI  29
NORTH PLATTE   LGT RAIN  40  37  89 N9        29.81R WCI  34
MCCOOK         RAIN      41  40  96 NW14      29.76R FOG

...EASTERN NEBRASKA...

CITY           SKY/WX    TMP DP  RH WIND       PRES   REMARKS
NORFOLK        CLOUDY    40  38  93 N14       29.69R WCI  32
SO SIOUX CITY  CLOUDY    39  38  96 N10       29.68S WCI  32
TEKAMAH        CLOUDY    41  38  89 N16       29.65F
COLUMBUS       CLOUDY    40  38  93 N14       29.67R WCI  32
ALBION         DRIZZLE   41  37  85 N14       29.71R
OMAHA EPPLEY   LGT RAIN  44  39  82 N16       29.59R
OFFUTT AFB     LGT RAIN  46  42  86 N13G21    29.58R
MILLARD        CLOUDY    46  41  81 N7G20     29.59F
LINCOLN        CLOUDY    44  39  82 NE16      29.60F
NEBRASKA CITY  CLOUDY    48  48 100 N18G26    29.53F FOG
BEATRICE       CLOUDY    47  41  80 N18G24    29.56S
FALLS CITY     LGT RAIN  53  51  93 N17G24    29.48R

...NORTHERN KANSAS...

CITY           SKY/WX    TMP DP  RH WIND       PRES   REMARKS
GOODLAND       LGT RAIN  41  39  93 NW16      29.79R
HILL CITY      MOCLDY    44  36  73 NW15G24   29.72R
NORTON         LGT RAIN  39  36  87 NW18G25   29.71R WCI  30
PHILLIPSBURG   PTCLDY    45  36  70 NW17G23   29.69R
SMITH CENTER   CLEAR     41  36  81 N15       29.65R
HAYS           CLEAR     42  34  73 N14       29.67R
RUSSELL        CLEAR     43  37  79 N23G33    29.59R
CONCORDIA      CLOUDY    46  39  76 N15G25    29.57S
SALINA         CLOUDY    51  41  68 N29G39    29.50S
TOPEKA         CLOUDY    54  54 100 N12       29.38F FOG



USA.gov is the U.S. government's official web portal to all federal, state and local government web resources and services.